Orbital Elements at Epoch 2459200.5 (2020-Dec-17.0) TDB
Reference: JPL 28 (heliocentric ecliptic J2000)
Element | Value | Uncertainty (1-sigma) | Units |
e | .1110232097693112 | 3.4774e-08 | |
a | 2.44118806877393 | 9.399e-09 | au |
q | 2.170159533728102 | 8.6061e-08 | au |
i | 5.226500419411839 | 4.3452e-06 | deg |
node | 14.29568090517652 | 4.2215e-05 | deg |
peri | 16.28345432749608 | 4.6942e-05 | deg |
M | 180.4029322595151 | 2.0955e-05 | deg |
tp | 2459895.519557921469 (2022-Nov-12.01955792) | 8.2288e-05 | TDB |
period | 1393.157716880291 3.81 | 8.0458e-06 2.203e-08 | d yr |
n | .2584057753390268 | 1.4924e-09 | deg/d |
Q | 2.712216603819757 | 1.0442e-08 | au |
|
| | Orbit Determination Parameters
Additional Information
|